This is the latest recevied weather packets stored in our database for station/object W4MJZ-1. If no packets are shown the sender has not sent any weather packets the latest 1 day(s).
| Time | Temp. | Humidity | Pressure | Rain* | Wind** | Luminosity | Snow |
|---|---|---|---|---|---|---|---|
| 1778046139 | 14.44° C | 53% | 1021.8 hPa | 0 mm | - | - | - |
| 1778045840 | 14.44° C | 53% | 1022.2 hPa | 0 mm | - | - | - |
| 1778045670 | 15° C | 53% | 1021.8 hPa | 0 mm | - | - | - |
| 1778045541 | 15° C | 53% | 1021.8 hPa | 0 mm | - | - | - |
| 1778045423 | 15° C | 53% | 1021.8 hPa | 0 mm | - | - | - |
| 1778045239 | 15° C | 53% | 1021.8 hPa | 0 mm | - | - | - |
| 1778045155 | 15° C | 52% | 1021.5 hPa | 0 mm | - | - | - |
| 1778044939 | 15° C | 52% | 1021.5 hPa | 0 mm | - | - | - |
| 1778044737 | 15° C | 51% | 1021.8 hPa | 0 mm | - | - | - |
| 1778044639 | 15° C | 51% | 1021.8 hPa | 0 mm | - | - | - |
| 1778044339 | 15° C | 51% | 1021.8 hPa | 0 mm | - | - | - |
| 1778044039 | 15.56° C | 52% | 1021.5 hPa | 0 mm | - | - | - |
| 1778043439 | 15.56° C | 48% | 1021.5 hPa | 0 mm | - | - | - |
| 1778043326 | 16.11° C | 47% | 1021.5 hPa | 0 mm | - | - | - |
| 1778043139 | 16.11° C | 47% | 1021.5 hPa | 0 mm | - | - | - |
| 1778043012 | 16.11° C | 48% | 1021.5 hPa | 0 mm | - | - | - |
| 1778042839 | 16.11° C | 48% | 1021.5 hPa | 0 mm | - | - | - |
| 1778042539 | 15.56° C | 48% | 1021.5 hPa | 0 mm | - | - | - |
| 1778042379 | 14.44° C | 53% | 1021.5 hPa | 0 mm | - | - | - |
| 1778042241 | 14.44° C | 53% | 1021.5 hPa | 0 mm | - | - | - |
| 1778042049 | 14.44° C | 55% | 1021.1 hPa | 0 mm | - | - | - |
| 1778041939 | 14.44° C | 55% | 1021.1 hPa | 0 mm | - | - | - |
| 1778041770 | 15° C | 51% | 1021.1 hPa | 0 mm | - | - | - |
| 1778041639 | 15° C | 51% | 1021.1 hPa | 0 mm | - | - | - |
| 1778041526 | 15.56° C | 51% | 1021.1 hPa | 0 mm | - | - | - |
* Rain latest hour (hover to see other rain measurements)
** Current wind speed in m/s (hover to see current wind gust speed)